Location: Oriwa
(40.7500°S, 175.3333°E)
Time: 10:34:39
(UTC+00:00)

ARIANE 5 R/B - Pass Details

Date: 03 February 2023
Orbit: 747 x 795 km, 98.8° (Epoch: 19 March)

Event Time Altitude Azimuth Distance (km) Brightness Sun altitude
Exits shadow 15:05:44 - 34° (NNE) 2,332 4.8 -22.6°
Reaches altitude 10° 15:05:51 10° 34° (NE) 2,288 4.8 -22.6°
Maximum altitude 15:10:44 52° 109° (ESE) 960 3.3 -22.0°
Drops below altitude 10° 15:15:43 10° 184° (S) 2,344 5.6 -21.4°
Sets 15:18:07 0° 188° (S) 3,286 6.3 -21.1°
